EW8073 Weather Reports


time (UTC)temp
C
wind
direction
speed
KPH
gust
KPH
rain 1hr
cm
rain 24hr
cm
rain mn
cm
humidity
%
barometer
mb
20260903072015 17 264 0.0 0.0 0.00 0.05 0.00 75 1015.4
20260903071509 17 264 0.0 0.0 0.00 0.05 0.00 75 1015.3
20260903071004 17 264 0.0 0.0 0.00 0.05 0.00 75 1015.4
20260903070457 17 265 0.0 0.0 0.00 0.05 0.00 75 1015.3
20260903065953 17 265 0.0 0.0 0.00 0.05 0.00 75 1015.3
20260903064941 17 265 0.0 0.0 0.00 0.05 0.00 75 1015.2
20260903064433 17 265 0.0 0.0 0.00 0.05 0.00 75 1015.3
20260903063927 17 265 0.0 0.0 0.00 0.05 0.00 75 1015.4
20260903062923 17 265 0.0 0.0 0.00 0.05 0.00 75 1015.3
20260903062423 17 265 0.0 0.0 0.00 0.05 0.00 75 1015.4
20260903061926 17 265 0.0 0.0 0.00 0.05 0.00 75 1015.4
20260903061421 17 265 0.0 0.0 0.00 0.05 0.00 75 1015.4
20260903060419 17 265 0.0 0.0 0.00 0.05 0.00 75 1015.7
20260903055918 17 265 0.0 0.0 0.00 0.05 0.05 75 1015.7
20260903055417 17 265 0.0 0.0 0.00 0.05 0.05 74 1015.5
20260903054918 17 265 0.0 0.0 0.00 0.05 0.05 74 1015.4
20260903054418 17 265 0.0 0.0 0.00 0.05 0.05 74 1015.3
20260903053918 17 265 0.0 0.0 0.00 0.05 0.05 74 1015.5
20260903053418 18 265 0.0 0.0 0.00 0.05 0.05 74 1015.5
20260903052915 18 265 0.0 0.0 0.00 0.05 0.05 74 1015.3
20260903052413 18 265 0.0 0.0 0.00 0.05 0.05 74 1015.1
20260903051914 18 265 0.0 0.0 0.00 0.05 0.05 74 1015.3
20260903051413 18 265 0.0 0.0 0.00 0.05 0.05 74 1015.2
20260903050915 18 330 0.0 0.0 0.00 0.05 0.05 73 1015.3
20260903050414 18 330 0.0 0.0 0.00 0.05 0.05 72 1015.4
20260903045914 18 330 0.0 0.0 0.00 0.05 0.05 72 1015.4
20260903045413 18 330 0.0 0.0 0.00 0.05 0.05 72 1015.4
20260903044915 18 330 0.0 0.0 0.00 0.05 0.05 72 1015.5
20260903043414 19 330 0.0 0.0 0.00 0.05 0.05 70 1015.5
20260903042414 19 330 0.0 0.0 0.00 0.05 0.05 69 1015.5
20260903041913 19 330 0.0 0.0 0.00 0.05 0.05 68 1015.5
20260903041413 20 330 0.0 0.0 0.03 0.05 0.05 67 1015.5
20260903040914 20 330 0.0 0.0 0.05 0.05 0.05 67 1015.5
20260903035909 20 330 0.0 0.0 0.05 0.05 0.05 65 1015.5
20260903035403 20 330 0.0 0.0 0.05 0.05 0.05 64 1015.7
20260903034856 20 330 0.0 0.0 0.05 0.05 0.05 63 1015.5
20260903034353 20 283 0.0 0.0 0.05 0.05 0.05 63 1015.7
20260903033849 21 333 0.0 0.0 0.05 0.05 0.05 62 1015.7
20260903033348 21 330 0.0 0.0 0.05 0.05 0.05 62 1015.7
20260903032845 21 351 0.0 0.0 0.05 0.05 0.05 61 1015.5
20260903031843 22 279 0.0 0.0 0.05 0.05 0.05 59 1015.9
20260903030343 22 252 0.0 0.0 0.00 0.00 0.00 52 1016.6
20260903025841 22 63 0.0 0.0 0.00 0.00 0.00 51 1016.1
20260903024842 22 63 0.0 0.0 0.00 0.00 0.00 50 1015.2
20260903024340 22 111 0.0 0.0 0.00 0.00 0.00 50 1014.7
20260903023838 23 209 0.0 0.0 0.00 0.00 0.00 49 1014.5
20260903023338 23 247 0.0 0.0 0.00 0.00 0.00 48 1014.4
20260903022837 23 346 0.0 0.0 0.00 0.00 0.00 48 1014.4
20260903022337 23 323 0.0 0.0 0.00 0.00 0.00 48 1014.3
20260903021836 23 323 0.0 0.0 0.00 0.00 0.00 47 1014.4
20260903020829 23 332 0.0 0.0 0.00 0.00 0.00 46 1014.5
20260903020323 23 329 0.0 0.0 0.00 0.00 0.00 45 1014.4
20260903015817 24 342 0.0 0.0 0.00 0.00 0.00 44 1014.4
20260903015310 24 321 0.0 0.0 0.00 0.00 0.00 43 1014.4
20260903014805 24 337 0.0 0.0 0.00 0.00 0.00 42 1014.1
20260903014258 25 294 0.0 0.0 0.00 0.00 0.00 41 1014.1
20260903013756 25 284 0.0 0.0 0.00 0.00 0.00 40 1014.1
20260903012741 25 71 0.0 0.0 0.00 0.00 0.00 38 1014.1
20260903012234 26 340 0.0 0.0 0.00 0.00 0.00 38 1014.1
20260903011223 26 347 0.0 6.4 0.00 0.00 0.00 37 1014.0
20260903010717 27 338 0.0 6.4 0.00 0.00 0.00 36 1013.9
20260903005704 27 0 1.6 12.9 0.00 0.00 0.00 35 1013.9
20260903005158 28 9 0.0 0.0 0.00 0.00 0.00 33 1013.9
20260903004655 28 17 0.0 0.0 0.00 0.00 0.00 31 1013.7
20260903004148 28 297 0.0 1.6 0.00 0.00 0.00 30 1013.6
20260903003640 28 315 0.0 1.6 0.00 0.00 0.00 30 1013.6
20260903003135 28 342 0.0 3.2 0.00 0.00 0.00 31 1013.6
20260903002628 28 309 1.6 9.7 0.00 0.00 0.00 30 1013.4
20260903002122 29 339 1.6 9.7 0.00 0.00 0.00 31 1013.4
20260903001617 29 329 0.0 0.0 0.00 0.00 0.00 31 1013.4
20260903001110 29 0 0.0 0.0 0.00 0.00 0.00 32 1013.3
20260903000605 29 5 0.0 0.0 0.00 0.00 0.00 32 1013.3
20260902235552 29 67 0.0 0.0 0.00 0.00 0.00 33 1013.3
20260902235053 29 67 0.0 0.0 0.00 0.00 0.00 33 1013.3
20260902234553 29 67 0.0 0.0 0.00 0.00 0.00 32 1013.3
20260902234053 29 67 0.0 0.0 0.00 0.00 0.00 32 1013.3
20260902233550 29 67 0.0 0.0 0.00 0.00 0.00 31 1013.3
20260902233051 29 67 0.0 0.0 0.00 0.00 0.00 31 1013.2
20260902232549 30 131 0.0 0.0 0.00 0.00 0.00 30 1013.2
20260902232051 30 178 0.0 0.0 0.00 0.00 0.00 31 1013.3
20260902231548 30 178 0.0 0.0 0.00 0.00 0.00 30 1013.3
20260902231049 30 179 0.0 0.0 0.00 0.00 0.00 30 1013.2
20260902230548 30 179 0.0 0.0 0.00 0.00 0.00 30 1013.1
20260902225546 31 213 0.0 0.0 0.00 0.00 0.00 28 1013.1
20260902225042 31 142 0.0 0.0 0.00 0.00 0.00 28 1013.2
20260902224044 31 125 0.0 0.0 0.00 0.00 0.00 29 1013.2
20260902223541 31 202 0.0 0.0 0.00 0.00 0.00 29 1013.3
20260902223039 31 350 0.0 0.0 0.00 0.00 0.00 27 1013.1
20260902222038 31 136 0.0 0.0 0.00 0.00 0.00 29 1013.1
20260902221532 31 123 0.0 0.0 0.00 0.00 0.00 32 1013.2
20260902220519 31 125 0.0 0.0 0.00 0.00 0.00 29 1013.4
20260902215507 31 118 0.0 0.0 0.00 0.00 0.00 28 1013.6
20260902215002 31 118 0.0 0.0 0.00 0.00 0.00 28 1013.7
20260902214456 31 101 0.0 0.0 0.00 0.00 0.00 28 1013.6
20260902213453 31 90 0.0 4.8 0.00 0.00 0.00 28 1013.8
20260902212952 31 88 0.0 4.8 0.00 0.00 0.00 28 1013.9
20260902212456 31 244 0.0 0.0 0.00 0.00 0.00 31 1013.9
20260902211951 31 333 0.0 0.0 0.00 0.00 0.00 29 1013.9
20260902211450 31 49 0.0 0.0 0.00 0.00 0.00 30 1014.0
20260902210952 31 177 0.0 0.0 0.00 0.00 0.00 32 1014.0
20260902210449 31 105 0.0 11.3 0.00 0.00 0.00 28 1014.3
20260902205947 31 146 0.0 11.3 0.00 0.00 0.00 31 1014.3
20260902204444 31 41 0.0 3.2 0.00 0.00 0.00 27 1014.6
20260902203944 31 171 0.0 4.8 0.00 0.00 0.00 28 1014.7
20260902203443 31 138 0.0 4.8 0.00 0.00 0.00 29 1014.8
20260902202939 31 76 0.0 4.8 0.00 0.00 0.00 30 1014.8
20260902202438 31 160 0.0 0.0 0.00 0.00 0.00 29 1015.1
20260902200939 30 127 0.0 0.0 0.00 0.00 0.00 28 1015.3
20260902200439 31 131 0.0 0.0 0.00 0.00 0.00 30 1015.3
20260902195939 31 115 0.0 0.0 0.00 0.00 0.00 29 1015.3
20260902195439 30 157 0.0 0.0 0.00 0.00 0.00 33 1015.4
20260902194938 30 225 0.0 0.0 0.00 0.00 0.00 28 1015.4
20260902194439 30 263 0.0 0.0 0.00 0.00 0.00 28 1015.5
20260902193938 30 319 0.0 0.0 0.00 0.00 0.00 29 1015.5
20260902193439 30 321 0.0 0.0 0.00 0.00 0.00 30 1015.7
20260902192938 30 66 0.0 1.6 0.00 0.00 0.00 28 1015.8
20260902192439 29 112 0.0 4.8 0.00 0.00 0.00 29 1015.8
20260902191939 29 112 0.0 4.8 0.00 0.00 0.00 29 1015.9
20260902191438 29 112 0.0 0.0 0.00 0.00 0.00 30 1015.9
20260902190938 29 112 0.0 0.0 0.00 0.00 0.00 30 1016.0
20260902185939 28 113 0.0 0.0 0.00 0.00 0.00 30 1016.1
20260902185439 28 113 0.0 0.0 0.00 0.00 0.00 32 1016.2
20260902184939 28 113 0.0 0.0 0.00 0.00 0.00 29 1016.2
20260902184441 28 148 0.0 0.0 0.00 0.00 0.00 30 1016.4
20260902183939 28 78 0.0 0.0 0.00 0.00 0.00 33 1016.4
20260902183436 28 78 0.0 0.0 0.00 0.00 0.00 31 1016.6
20260902182938 28 329 0.0 0.0 0.00 0.00 0.00 31 1016.6
20260902182434 28 331 0.0 0.0 0.00 0.00 0.00 31 1016.7
20260902181934 28 331 0.0 0.0 0.00 0.00 0.00 31 1016.8
20260902180935 28 5 0.0 0.0 0.00 0.00 0.00 30 1017.1
20260902180432 28 0 0.0 0.0 0.00 0.00 0.00 32 1017.2
20260902175932 28 69 0.0 0.0 0.00 0.00 0.00 32 1017.3
20260902175434 28 66 0.0 0.0 0.00 0.00 0.00 34 1017.5
20260902174927 27 66 0.0 0.0 0.00 0.00 0.00 33 1017.5
20260902174420 27 66 0.0 0.0 0.00 0.00 0.00 32 1017.5
20260902173915 27 66 0.0 0.0 0.00 0.00 0.00 32 1017.5
20260902173408 27 69 0.0 0.0 0.00 0.00 0.00 32 1017.5
20260902172904 27 66 0.0 0.0 0.00 0.00 0.00 34 1017.6
20260902172356 27 65 0.0 0.0 0.00 0.00 0.00 34 1017.6
20260902171850 27 65 0.0 0.0 0.00 0.00 0.00 34 1017.6
20260902170839 27 63 0.0 0.0 0.00 0.00 0.00 34 1017.8
20260902170332 26 64 0.0 0.0 0.00 0.00 0.00 34 1017.9
20260902165826 26 64 0.0 0.0 0.00 0.00 0.00 35 1017.9
20260902165320 26 64 0.0 8.0 0.00 0.00 0.00 35 1017.9
20260902164308 26 214 0.0 0.0 0.00 0.00 0.00 33 1017.9
20260902163802 26 214 0.0 0.0 0.00 0.00 0.00 37 1018.0
20260902163256 26 217 0.0 0.0 0.00 0.00 0.00 39 1018.0
20260902162750 25 217 0.0 3.2 0.00 0.00 0.00 38 1018.0
20260902162244 25 217 0.0 4.8 0.00 0.00 0.00 40 1018.1
20260902161740 25 217 0.0 4.8 0.00 0.00 0.00 41 1018.0
20260902161233 25 233 0.0 0.0 0.00 0.00 0.00 41 1018.0
20260902160726 25 234 0.0 1.6 0.00 0.00 0.00 42 1018.0
20260902160220 24 234 0.0 1.6 0.00 0.00 0.00 44 1018.1
20260902155714 24 234 0.0 0.0 0.00 0.00 0.00 45 1018.1
20260902155208 23 234 0.0 1.6 0.00 0.00 0.00 45 1018.1
20260902154156 23 234 0.0 0.0 0.00 0.00 0.00 48 1018.1
20260902153145 22 234 0.0 0.0 0.00 0.00 0.00 51 1018.1
20260902152639 22 234 0.0 0.0 0.00 0.00 0.00 53 1018.0
20260902152133 22 234 0.0 0.0 0.00 0.00 0.00 53 1018.1
20260902151628 22 234 0.0 0.0 0.00 0.00 0.00 55 1018.0
20260902151120 21 235 0.0 0.0 0.00 0.00 0.00 56 1018.1
20260902150616 21 235 0.0 0.0 0.00 0.00 0.00 57 1018.1
20260902150109 20 235 0.0 0.0 0.00 0.00 0.00 58 1018.1
20260902145604 20 235 0.0 0.0 0.00 0.00 0.00 58 1018.1
20260902145058 20 235 0.0 0.0 0.00 0.00 0.00 59 1018.1
20260902144550 20 235 1.6 6.4 0.00 0.00 0.00 60 1018.1
20260902144044 19 247 1.6 6.4 0.00 0.00 0.00 60 1018.2
20260902143032 18 240 0.0 0.0 0.00 0.00 0.00 64 1018.2
20260902142526 17 318 0.0 0.0 0.00 0.00 0.00 69 1018.1
20260902141514 17 323 0.0 0.0 0.00 0.00 0.00 72 1018.1
20260902140504 16 324 0.0 0.0 0.00 0.00 0.00 73 1018.0
20260902135450 15 324 0.0 0.0 0.00 0.00 0.00 73 1018.0
20260902134944 15 324 0.0 0.0 0.00 0.00 0.00 73 1018.1
20260902134438 15 324 0.0 0.0 0.00 0.00 0.00 73 1018.1
20260902133932 15 324 0.0 0.0 0.00 0.00 0.00 72 1018.0
20260902133428 15 324 0.0 0.0 0.00 0.00 0.00 72 1018.0
20260902132922 14 324 0.0 0.0 0.00 0.00 0.00 72 1018.0
20260902132416 14 324 0.0 0.0 0.00 0.00 0.00 71 1018.0
20260902131910 14 324 0.0 0.0 0.00 0.00 0.00 71 1017.9
20260902130856 14 324 0.0 0.0 0.00 0.00 0.00 70 1017.8
20260902130350 14 324 0.0 0.0 0.00 0.00 0.00 69 1017.6
20260902125844 14 324 0.0 0.0 0.00 0.00 0.00 69 1017.6
20260902125338 15 324 0.0 0.0 0.00 0.00 0.00 69 1017.5
20260902124832 15 324 0.0 0.0 0.00 0.00 0.00 68 1017.5
20260902124326 15 324 0.0 0.0 0.00 0.00 0.00 68 1017.6
20260902123821 15 324 0.0 0.0 0.00 0.00 0.00 68 1017.5
20260902123316 15 324 0.0 0.0 0.00 0.00 0.00 68 1017.5
20260902122809 15 324 0.0 0.0 0.00 0.00 0.00 68 1017.4
20260902122305 15 324 0.0 0.0 0.00 0.00 0.00 68 1017.4
20260902121250 15 324 0.0 0.0 0.00 0.00 0.00 67 1017.2
20260902120746 15 324 0.0 0.0 0.00 0.00 0.00 67 1017.1
20260902120246 15 324 0.0 0.0 0.00 0.00 0.00 67 1017.1
20260902115744 15 324 0.0 0.0 0.00 0.00 0.00 67 1017.1
20260902115242 15 324 0.0 0.0 0.00 0.00 0.00 67 1017.1
20260902114741 15 324 0.0 0.0 0.00 0.00 0.00 67 1017.1
20260902114242 15 324 0.0 0.0 0.00 0.00 0.00 67 1017.1
20260902113238 16 324 0.0 0.0 0.00 0.00 0.00 66 1017.1
20260902112736 16 324 0.0 0.0 0.00 0.00 0.00 66 1017.1
20260902111736 16 324 0.0 0.0 0.00 0.00 0.00 66 1017.1
20260902111236 16 324 0.0 0.0 0.00 0.00 0.00 66 1016.9
20260902110735 16 324 0.0 0.0 0.00 0.00 0.00 66 1016.8
20260902105731 16 324 0.0 0.0 0.00 0.00 0.00 66 1016.8
20260902105232 16 324 0.0 0.0 0.00 0.00 0.00 66 1016.7
20260902104732 16 324 0.0 0.0 0.00 0.00 0.00 65 1016.7
20260902104232 16 324 0.0 0.0 0.00 0.00 0.00 65 1016.8
20260902103731 16 328 0.0 0.0 0.00 0.00 0.00 65 1016.8
20260902103231 16 328 0.0 0.0 0.00 0.00 0.00 65 1016.7
20260902102231 16 328 0.0 0.0 0.00 0.00 0.00 65 1016.7
20260902101733 16 328 0.0 0.0 0.00 0.00 0.00 65 1016.7
20260902101231 16 328 0.0 0.0 0.00 0.00 0.00 64 1016.7
20260902100732 16 328 0.0 0.0 0.00 0.00 0.00 64 1016.6
20260902100231 16 328 0.0 0.0 0.00 0.00 0.00 64 1016.7
20260902095733 16 328 0.0 0.0 0.00 0.00 0.00 64 1016.7
20260902095232 16 329 0.0 0.0 0.00 0.00 0.00 63 1016.7
20260902094732 16 329 0.0 0.0 0.00 0.00 0.00 63 1016.7
20260902094232 16 329 0.0 0.0 0.00 0.00 0.00 63 1016.7
20260902093732 16 329 0.0 0.0 0.00 0.00 0.00 63 1016.8
20260902093233 16 329 0.0 0.0 0.00 0.00 0.00 62 1016.8
20260902092725 17 329 0.0 0.0 0.00 0.00 0.00 62 1016.9
20260902092221 17 329 0.0 0.0 0.00 0.00 0.00 62 1016.8
20260902091714 17 329 0.0 0.0 0.00 0.00 0.00 62 1016.9
20260902091209 17 329 0.0 0.0 0.00 0.00 0.00 62 1016.9
20260902090704 17 329 0.0 0.0 0.00 0.00 0.00 61 1016.8
20260902090157 17 329 0.0 0.0 0.00 0.00 0.00 61 1016.8
20260902085652 17 329 0.0 0.0 0.00 0.00 0.00 60 1016.6
20260902084640 17 329 0.0 0.0 0.00 0.00 0.00 60 1016.6
20260902084133 17 329 0.0 0.0 0.00 0.00 0.00 60 1016.6
20260902083121 17 329 0.0 0.0 0.00 0.00 0.00 60 1016.6
20260902082615 17 329 0.0 0.0 0.00 0.00 0.00 59 1016.6
20260902082110 17 329 0.0 0.0 0.00 0.00 0.00 59 1016.6
20260902081605 18 329 0.0 0.0 0.00 0.00 0.00 59 1016.6
20260902081058 18 329 0.0 0.0 0.00 0.00 0.00 59 1016.6
20260902080552 18 329 0.0 0.0 0.00 0.00 0.00 59 1016.7
20260902080045 18 329 0.0 0.0 0.00 0.00 0.00 59 1016.7
20260902075035 18 329 0.0 0.0 0.00 0.00 0.00 59 1016.8
20260902074528 18 329 0.0 0.0 0.00 0.00 0.00 59 1016.8
20260902074022 18 329 0.0 0.0 0.00 0.00 0.00 59 1016.8
20260902073515 18 329 0.0 0.0 0.00 0.00 0.00 59 1016.8
20260902073010 18 329 0.0 0.0 0.00 0.00 0.00 59 1016.8
20260902072503 18 329 0.0 0.0 0.00 0.00 0.00 58 1016.7